Time,TemperatureF,DewpointF,PressureIn,WindDirection,WindDirectionDegrees,WindSpeedMPH,WindSpeedGustMPH,Humidity,HourlyPrecipIn,Conditions,Clouds,dailyrainin,SolarRadiationWatts/m^2,SoftwareType,DateUTC
2013-06-29 00:02:00,68.7,64.8,29.58,West,276,0.0,0.0,84,0.00,,,0.00,0.0,meteohub,2013-06-29 04:02:00,
2013-06-29 00:05:00,68.4,64.4,29.58,West,276,0.0,0.0,84,0.00,,,0.00,0.0,meteohub,2013-06-29 04:05:00,
2013-06-29 00:12:00,68.2,64.4,29.58,West,276,0.0,0.0,85,0.00,,,0.00,0.0,meteohub,2013-06-29 04:12:00,
2013-06-29 00:17:00,68.0,64.2,29.57,West,276,0.0,0.0,85,0.00,,,0.00,0.0,meteohub,2013-06-29 04:17:00,
2013-06-29 00:22:00,67.8,64.0,29.57,West,276,0.0,0.0,85,0.00,,,0.00,0.0,meteohub,2013-06-29 04:22:00,
2013-06-29 00:27:00,67.5,64.0,29.57,West,276,0.0,0.0,86,0.00,,,0.00,0.0,meteohub,2013-06-29 04:27:00,
2013-06-29 00:32:00,67.3,63.9,29.58,West,276,0.0,0.0,86,0.00,,,0.00,0.0,meteohub,2013-06-29 04:32:00,
2013-06-29 00:37:00,67.3,64.2,29.58,West,276,0.0,0.0,87,0.00,,,0.00,0.0,meteohub,2013-06-29 04:37:00,
2013-06-29 00:42:00,66.9,63.5,29.58,West,276,0.0,2.0,86,0.00,,,0.00,0.0,meteohub,2013-06-29 04:42:00,
2013-06-29 00:45:00,66.9,63.5,29.57,West,276,0.0,2.0,86,0.00,,,0.00,0.0,meteohub,2013-06-29 04:45:00,
2013-06-29 00:51:00,66.6,63.5,29.57,West,276,0.0,2.0,87,0.00,,,0.00,0.0,meteohub,2013-06-29 04:51:00,
2013-06-29 00:57:00,66.4,63.3,29.57,West,276,0.0,2.0,87,0.00,,,0.00,0.0,meteohub,2013-06-29 04:57:00,
2013-06-29 01:02:00,66.4,63.3,29.57,West,276,0.0,1.0,87,0.00,,,0.00,0.0,meteohub,2013-06-29 05:02:00,
2013-06-29 01:07:00,66.2,63.5,29.57,West,276,0.0,1.0,88,0.00,,,0.00,0.0,meteohub,2013-06-29 05:07:00,
2013-06-29 01:12:00,66.2,63.5,29.57,West,276,1.0,0.0,88,0.00,,,0.00,0.0,meteohub,2013-06-29 05:12:00,
2013-06-29 01:17:00,66.0,63.3,29.57,West,276,0.0,2.0,88,0.00,,,0.00,0.0,meteohub,2013-06-29 05:17:00,
2013-06-29 01:24:00,66.0,63.3,29.57,West,276,0.0,2.0,88,0.00,,,0.00,0.0,meteohub,2013-06-29 05:24:00,
2013-06-29 01:31:00,65.8,63.1,29.57,West,276,0.0,0.0,88,0.00,,,0.00,0.0,meteohub,2013-06-29 05:31:00,
2013-06-29 01:37:00,65.7,63.0,29.57,West,276,0.0,0.0,88,0.00,,,0.00,0.0,meteohub,2013-06-29 05:37:00,
2013-06-29 01:42:00,65.7,63.0,29.57,West,276,0.0,0.0,88,0.00,,,0.00,0.0,meteohub,2013-06-29 05:42:00,
2013-06-29 01:47:00,65.7,63.0,29.57,West,276,0.0,0.0,88,0.00,,,0.00,0.0,meteohub,2013-06-29 05:47:00,
2013-06-29 01:52:00,65.7,63.0,29.57,West,276,0.0,0.0,88,0.00,,,0.00,0.0,meteohub,2013-06-29 05:52:00,
2013-06-29 01:57:00,65.7,63.0,29.57,West,276,0.0,0.0,88,0.00,,,0.00,0.0,meteohub,2013-06-29 05:57:00,
2013-06-29 02:02:00,65.7,63.0,29.56,West,276,0.0,0.0,88,0.00,,,0.00,0.0,meteohub,2013-06-29 06:02:00,
2013-06-29 02:07:00,65.5,62.8,29.56,West,276,0.0,0.0,88,0.00,,,0.00,0.0,meteohub,2013-06-29 06:07:00,
2013-06-29 02:12:00,65.5,62.8,29.56,West,276,0.0,0.0,88,0.00,,,0.00,0.0,meteohub,2013-06-29 06:12:00,
2013-06-29 02:17:00,65.3,63.0,29.56,West,276,0.0,0.0,89,0.00,,,0.00,0.0,meteohub,2013-06-29 06:17:00,
2013-06-29 02:22:00,65.3,63.0,29.56,West,276,0.0,0.0,89,0.00,,,0.00,0.0,meteohub,2013-06-29 06:22:00,
2013-06-29 02:27:00,65.1,62.4,29.56,West,276,1.0,0.0,88,0.00,,,0.00,0.0,meteohub,2013-06-29 06:27:00,
2013-06-29 02:32:00,64.9,62.6,29.56,West,276,0.0,1.0,89,0.00,,,0.00,0.0,meteohub,2013-06-29 06:32:00,
2013-06-29 02:37:00,64.8,62.4,29.56,West,276,0.0,1.0,89,0.00,,,0.00,0.0,meteohub,2013-06-29 06:37:00,
2013-06-29 02:42:00,64.6,62.2,29.56,West,276,0.0,1.0,89,0.00,,,0.00,0.0,meteohub,2013-06-29 06:42:00,
2013-06-29 02:47:00,64.6,62.2,29.56,West,276,0.0,0.0,89,0.00,,,0.00,0.0,meteohub,2013-06-29 06:47:00,
2013-06-29 02:52:00,64.4,62.1,29.56,West,276,0.0,0.0,89,0.00,,,0.00,0.0,meteohub,2013-06-29 06:52:00,
2013-06-29 02:57:00,64.4,62.1,29.56,West,276,0.0,0.0,89,0.00,,,0.00,0.0,meteohub,2013-06-29 06:57:00,
2013-06-29 03:02:00,64.2,61.9,29.56,West,276,0.0,0.0,89,0.00,,,0.00,0.0,meteohub,2013-06-29 07:02:00,
2013-06-29 03:07:00,64.0,61.7,29.56,West,276,0.0,0.0,89,0.00,,,0.00,0.0,meteohub,2013-06-29 07:07:00,
2013-06-29 03:12:00,63.9,61.5,29.56,West,276,0.0,0.0,89,0.00,,,0.00,0.0,meteohub,2013-06-29 07:12:00,
2013-06-29 03:17:00,63.7,61.3,29.56,West,276,0.0,0.0,89,0.00,,,0.00,0.0,meteohub,2013-06-29 07:17:00,
2013-06-29 03:22:00,63.7,61.7,29.56,West,276,0.0,0.0,90,0.00,,,0.00,0.0,meteohub,2013-06-29 07:22:00,
2013-06-29 03:27:00,63.5,61.5,29.56,West,276,0.0,0.0,90,0.00,,,0.00,0.0,meteohub,2013-06-29 07:27:00,
2013-06-29 03:32:00,63.3,61.3,29.56,West,276,0.0,0.0,90,0.00,,,0.00,0.0,meteohub,2013-06-29 07:32:00,
2013-06-29 03:37:00,63.3,61.3,29.55,West,276,0.0,0.0,90,0.00,,,0.00,0.0,meteohub,2013-06-29 07:37:00,
2013-06-29 03:42:00,63.1,61.2,29.55,West,276,0.0,0.0,90,0.00,,,0.00,0.0,meteohub,2013-06-29 07:42:00,
2013-06-29 03:47:00,63.0,61.0,29.55,West,276,0.0,0.0,90,0.00,,,0.00,0.0,meteohub,2013-06-29 07:47:00,
2013-06-29 03:52:00,63.0,61.0,29.55,West,277,0.0,0.0,90,0.00,,,0.00,0.0,meteohub,2013-06-29 07:52:00,
2013-06-29 03:57:00,62.8,60.8,29.55,West,276,0.0,0.0,90,0.00,,,0.00,0.0,meteohub,2013-06-29 07:57:00,
2013-06-29 04:02:00,62.8,60.8,29.55,West,276,0.0,0.0,90,0.00,,,0.00,0.0,meteohub,2013-06-29 08:02:00,
2013-06-29 04:07:00,62.6,60.6,29.55,West,276,0.0,0.0,90,0.00,,,0.00,0.0,meteohub,2013-06-29 08:07:00,
2013-06-29 04:12:00,62.6,60.6,29.55,West,277,0.0,0.0,90,0.00,,,0.00,0.0,meteohub,2013-06-29 08:12:00,
2013-06-29 04:17:00,62.4,60.4,29.55,West,276,0.0,0.0,90,0.00,,,0.00,0.0,meteohub,2013-06-29 08:17:00,
2013-06-29 04:22:00,62.2,60.3,29.55,West,276,0.0,0.0,90,0.00,,,0.00,0.0,meteohub,2013-06-29 08:22:00,
2013-06-29 04:27:00,62.1,60.1,29.55,West,276,0.0,0.0,90,0.00,,,0.00,0.0,meteohub,2013-06-29 08:27:00,
2013-06-29 04:32:00,62.1,60.1,29.55,West,276,0.0,0.0,90,0.00,,,0.00,0.0,meteohub,2013-06-29 08:32:00,
2013-06-29 04:37:00,61.9,59.9,29.55,West,276,0.0,0.0,90,0.00,,,0.00,0.0,meteohub,2013-06-29 08:37:00,
2013-06-29 04:42:00,61.9,59.9,29.55,West,276,0.0,0.0,90,0.00,,,0.00,0.0,meteohub,2013-06-29 08:42:00,
2013-06-29 04:47:00,61.7,59.9,29.55,West,276,0.0,0.0,91,0.00,,,0.00,0.0,meteohub,2013-06-29 08:47:00,
2013-06-29 04:52:00,61.7,59.9,29.55,West,276,0.0,0.0,91,0.00,,,0.00,0.0,meteohub,2013-06-29 08:52:00,
2013-06-29 04:57:00,61.7,59.9,29.55,West,276,0.0,0.0,91,0.00,,,0.00,0.0,meteohub,2013-06-29 08:57:00,
2013-06-29 05:02:00,61.5,59.7,29.55,West,276,0.0,0.0,91,0.00,,,0.00,0.0,meteohub,2013-06-29 09:02:00,
2013-06-29 05:07:00,61.5,59.7,29.56,West,276,0.0,0.0,91,0.00,,,0.00,0.0,meteohub,2013-06-29 09:07:00,
2013-06-29 05:12:00,61.5,59.7,29.56,West,276,0.0,0.0,91,0.00,,,0.00,0.0,meteohub,2013-06-29 09:12:00,
2013-06-29 05:17:00,61.3,59.5,29.57,West,276,0.0,0.0,91,0.00,,,0.00,0.0,meteohub,2013-06-29 09:17:00,
2013-06-29 05:22:00,61.2,59.4,29.57,West,276,0.0,0.0,91,0.00,,,0.00,0.0,meteohub,2013-06-29 09:22:00,
2013-06-29 05:27:00,61.2,59.4,29.57,West,276,0.0,0.0,91,0.00,,,0.00,0.0,meteohub,2013-06-29 09:27:00,
2013-06-29 05:32:00,61.2,59.4,29.57,WNW,286,2.0,0.0,91,0.00,,,0.00,0.0,meteohub,2013-06-29 09:32:00,
2013-06-29 05:37:00,61.2,59.4,29.57,WSW,243,0.0,2.0,91,0.00,,,0.00,0.0,meteohub,2013-06-29 09:37:00,
2013-06-29 05:42:00,60.8,59.0,29.57,WSW,243,0.0,2.0,91,0.00,,,0.00,0.0,meteohub,2013-06-29 09:42:00,
2013-06-29 05:47:00,60.8,59.0,29.58,WSW,243,0.0,2.0,91,0.00,,,0.00,0.0,meteohub,2013-06-29 09:47:00,
2013-06-29 05:52:00,60.6,58.8,29.58,WSW,243,0.0,2.0,91,0.00,,,0.00,0.0,meteohub,2013-06-29 09:52:00,
2013-06-29 05:57:00,60.6,58.8,29.58,WSW,243,0.0,2.0,91,0.00,,,0.00,0.0,meteohub,2013-06-29 09:57:00,
2013-06-29 06:02:00,60.4,58.6,29.58,WSW,243,0.0,0.0,91,0.00,,,0.00,5.0,meteohub,2013-06-29 10:02:00,
2013-06-29 06:07:00,60.4,58.6,29.58,WSW,243,0.0,0.0,91,0.00,,,0.00,7.0,meteohub,2013-06-29 10:07:00,
2013-06-29 06:12:00,60.3,58.5,29.58,WSW,243,0.0,0.0,91,0.00,,,0.00,11.0,meteohub,2013-06-29 10:12:00,
2013-06-29 06:17:00,60.3,58.5,29.58,WSW,243,0.0,0.0,91,0.00,,,0.00,14.0,meteohub,2013-06-29 10:17:00,
2013-06-29 06:22:00,60.3,58.5,29.59,WSW,243,0.0,0.0,91,0.00,,,0.00,16.0,meteohub,2013-06-29 10:22:00,
2013-06-29 06:27:00,60.3,58.5,29.59,WSW,243,0.0,0.0,91,0.00,,,0.00,21.0,meteohub,2013-06-29 10:27:00,
2013-06-29 06:32:00,60.3,58.5,29.59,WSW,243,0.0,1.0,91,0.00,,,0.00,62.0,meteohub,2013-06-29 10:32:00,
2013-06-29 06:37:00,60.4,59.0,29.59,WSW,243,0.0,1.0,92,0.00,,,0.00,77.0,meteohub,2013-06-29 10:37:00,
2013-06-29 06:42:00,60.8,59.4,29.59,WSW,243,0.0,1.0,92,0.00,,,0.00,90.0,meteohub,2013-06-29 10:42:00,
2013-06-29 06:47:00,60.8,59.0,29.60,WSW,244,0.0,0.0,91,0.00,,,0.00,105.0,meteohub,2013-06-29 10:47:00,
2013-06-29 06:52:00,61.0,59.2,29.60,WSW,244,0.0,0.0,91,0.00,,,0.00,123.0,meteohub,2013-06-29 10:52:00,
2013-06-29 06:57:00,61.2,59.4,29.60,WSW,244,0.0,2.0,91,0.00,,,0.00,139.0,meteohub,2013-06-29 10:57:00,
2013-06-29 07:02:00,61.3,59.9,29.60,WSW,244,0.0,2.0,92,0.00,,,0.00,160.0,meteohub,2013-06-29 11:02:00,
2013-06-29 07:07:00,61.5,60.1,29.60,WSW,244,0.0,0.0,92,0.00,,,0.00,206.0,meteohub,2013-06-29 11:07:00,
2013-06-29 07:12:00,61.9,60.4,29.60,WSW,244,0.0,0.0,92,0.00,,,0.00,253.0,meteohub,2013-06-29 11:12:00,
2013-06-29 07:17:00,62.4,61.0,29.60,WSW,244,0.0,1.0,92,0.00,,,0.00,260.0,meteohub,2013-06-29 11:17:00,
2013-06-29 07:22:00,63.0,61.5,29.60,WSW,244,0.0,1.0,92,0.00,,,0.00,86.0,meteohub,2013-06-29 11:22:00,
2013-06-29 07:29:00,63.5,61.7,29.60,WSW,244,0.0,0.0,91,0.00,,,0.00,320.0,meteohub,2013-06-29 11:29:00,
2013-06-29 07:35:00,63.9,62.1,29.60,WSW,244,0.0,0.0,91,0.00,,,0.00,230.0,meteohub,2013-06-29 11:35:00,
2013-06-29 07:41:00,64.8,63.0,29.61,WSW,244,0.0,0.0,91,0.00,,,0.00,197.0,meteohub,2013-06-29 11:41:00,
2013-06-29 07:47:00,65.1,63.3,29.61,WSW,244,0.0,0.0,91,0.00,,,0.00,183.0,meteohub,2013-06-29 11:47:00,
2013-06-29 07:52:00,65.5,63.3,29.61,WSW,244,0.0,0.0,90,0.00,,,0.00,183.0,meteohub,2013-06-29 11:52:00,
2013-06-29 07:57:00,66.0,63.9,29.60,WSW,244,0.0,0.0,90,0.00,,,0.00,88.0,meteohub,2013-06-29 11:57:00,
2013-06-29 08:02:00,66.2,63.9,29.61,WSW,244,0.0,1.0,89,0.00,,,0.00,408.0,meteohub,2013-06-29 12:02:00,
2013-06-29 08:07:00,66.7,64.0,29.60,WSW,244,0.0,1.0,88,0.00,,,0.00,406.0,meteohub,2013-06-29 12:07:00,
2013-06-29 08:12:00,67.6,64.6,29.60,WSW,244,0.0,1.0,87,0.00,,,0.00,418.0,meteohub,2013-06-29 12:12:00,
2013-06-29 08:17:00,68.7,65.7,29.60,WSW,244,0.0,0.0,87,0.00,,,0.00,443.0,meteohub,2013-06-29 12:17:00,
2013-06-29 08:22:00,69.3,65.5,29.61,WSW,244,0.0,0.0,85,0.00,,,0.00,461.0,meteohub,2013-06-29 12:22:00,
2013-06-29 08:27:00,70.2,65.5,29.61,WSW,244,0.0,0.0,82,0.00,,,0.00,485.0,meteohub,2013-06-29 12:27:00,
2013-06-29 08:32:00,71.1,65.7,29.61,WSW,244,0.0,1.0,80,0.00,,,0.00,489.0,meteohub,2013-06-29 12:32:00,
2013-06-29 08:37:00,72.0,65.1,29.61,WSW,244,0.0,1.0,76,0.00,,,0.00,501.0,meteohub,2013-06-29 12:37:00,
2013-06-29 08:42:00,72.9,66.4,29.61,WSW,251,1.0,1.0,77,0.00,,,0.00,519.0,meteohub,2013-06-29 12:42:00,
2013-06-29 08:47:00,73.6,65.5,29.61,South,169,0.0,3.0,73,0.00,,,0.00,534.0,meteohub,2013-06-29 12:47:00,
2013-06-29 08:52:00,74.1,65.3,29.61,South,169,1.0,3.0,71,0.00,,,0.00,552.0,meteohub,2013-06-29 12:52:00,
2013-06-29 08:57:00,74.3,65.1,29.61,SSE,168,0.0,4.0,70,0.00,,,0.00,568.0,meteohub,2013-06-29 12:57:00,
2013-06-29 09:02:00,74.8,65.7,29.62,SSE,168,0.0,4.0,70,0.00,,,0.00,584.0,meteohub,2013-06-29 13:02:00,
2013-06-29 09:07:00,75.4,65.7,29.62,NNE,12,3.0,4.0,69,0.00,,,0.00,598.0,meteohub,2013-06-29 13:07:00,
2013-06-29 09:12:00,75.9,65.8,29.62,East,90,2.0,5.0,68,0.00,,,0.00,615.0,meteohub,2013-06-29 13:12:00,
2013-06-29 09:17:00,76.3,66.6,29.61,East,90,3.0,5.0,69,0.00,,,0.00,629.0,meteohub,2013-06-29 13:17:00,
2013-06-29 09:22:00,76.5,65.8,29.62,East,90,2.0,5.0,67,0.00,,,0.00,643.0,meteohub,2013-06-29 13:22:00,
2013-06-29 09:27:00,77.0,67.6,29.62,East,90,2.0,3.0,70,0.00,,,0.00,661.0,meteohub,2013-06-29 13:27:00,
2013-06-29 09:32:00,77.7,66.7,29.62,East,90,0.0,3.0,66,0.00,,,0.00,675.0,meteohub,2013-06-29 13:32:00,
2013-06-29 09:37:00,78.3,66.7,29.62,East,90,2.0,3.0,65,0.00,,,0.00,710.0,meteohub,2013-06-29 13:37:00,
2013-06-29 09:42:00,78.8,66.9,29.62,East,90,1.0,3.0,64,0.00,,,0.00,684.0,meteohub,2013-06-29 13:42:00,
2013-06-29 09:47:00,79.0,66.6,29.62,East,90,0.0,3.0,63,0.00,,,0.00,348.0,meteohub,2013-06-29 13:47:00,
2013-06-29 09:52:00,79.5,67.1,29.62,East,90,0.0,3.0,63,0.00,,,0.00,867.0,meteohub,2013-06-29 13:52:00,
2013-06-29 09:57:00,79.9,66.6,29.61,East,90,0.0,2.0,61,0.00,,,0.00,726.0,meteohub,2013-06-29 13:57:00,
2013-06-29 10:02:00,80.4,66.2,29.62,South,171,3.0,3.0,59,0.00,,,0.00,726.0,meteohub,2013-06-29 14:02:00,
2013-06-29 10:07:00,79.7,65.1,29.62,South,171,1.0,5.0,58,0.00,,,0.00,410.0,meteohub,2013-06-29 14:07:00,
2013-06-29 10:12:00,79.5,66.2,29.61,South,171,0.0,5.0,61,0.00,,,0.00,397.0,meteohub,2013-06-29 14:12:00,
2013-06-29 10:17:00,79.7,65.5,29.62,South,171,0.0,4.0,59,0.00,,,0.00,422.0,meteohub,2013-06-29 14:17:00,
2013-06-29 10:22:00,79.5,68.4,29.62,South,183,3.0,3.0,66,0.00,,,0.00,366.0,meteohub,2013-06-29 14:22:00,
2013-06-29 10:27:00,79.2,65.8,29.62,NW,319,3.0,3.0,61,0.00,,,0.00,346.0,meteohub,2013-06-29 14:27:00,
2013-06-29 10:32:00,79.0,67.1,29.62,NW,319,0.0,4.0,64,0.00,,,0.00,271.0,meteohub,2013-06-29 14:32:00,
2013-06-29 10:37:00,78.8,68.5,29.62,NW,315,0.0,4.0,68,0.00,,,0.00,253.0,meteohub,2013-06-29 14:37:00,
2013-06-29 10:42:00,78.6,66.7,29.62,West,279,1.0,4.0,64,0.00,,,0.00,294.0,meteohub,2013-06-29 14:42:00,
2013-06-29 10:47:00,78.3,67.6,29.62,West,279,2.0,4.0,67,0.00,,,0.00,366.0,meteohub,2013-06-29 14:47:00,
2013-06-29 10:52:00,78.3,69.3,29.62,West,279,0.0,4.0,71,0.00,,,0.00,490.0,meteohub,2013-06-29 14:52:00,
2013-06-29 10:57:00,78.3,68.5,29.62,West,281,1.0,3.0,69,0.00,,,0.00,364.0,meteohub,2013-06-29 14:57:00,
2013-06-29 11:02:00,78.4,68.7,29.62,West,281,0.0,3.0,69,0.00,,,0.00,434.0,meteohub,2013-06-29 15:02:00,
2013-06-29 11:07:00,78.6,68.0,29.62,WNW,284,0.0,4.0,67,0.00,,,0.00,471.0,meteohub,2013-06-29 15:07:00,
2013-06-29 11:12:00,78.6,67.1,29.62,WNW,284,1.0,4.0,65,0.00,,,0.00,243.0,meteohub,2013-06-29 15:12:00,
2013-06-29 11:17:00,78.6,67.6,29.62,WNW,284,0.0,4.0,66,0.00,,,0.00,260.0,meteohub,2013-06-29 15:17:00,
2013-06-29 11:22:00,78.6,68.9,29.62,WNW,284,0.0,3.0,69,0.00,,,0.00,346.0,meteohub,2013-06-29 15:22:00,
2013-06-29 11:27:00,78.6,68.4,29.62,WNW,284,1.0,3.0,68,0.00,,,0.00,306.0,meteohub,2013-06-29 15:27:00,
2013-06-29 11:32:00,78.6,68.4,29.62,WNW,283,0.0,3.0,68,0.00,,,0.00,311.0,meteohub,2013-06-29 15:32:00,
2013-06-29 11:37:00,78.6,68.0,29.62,West,281,0.0,3.0,67,0.00,,,0.00,424.0,meteohub,2013-06-29 15:37:00,
2013-06-29 11:42:00,78.6,68.4,29.62,West,281,0.0,3.0,68,0.00,,,0.00,241.0,meteohub,2013-06-29 15:42:00,
2013-06-29 11:47:00,78.6,68.4,29.62,SSE,166,0.0,4.0,68,0.00,,,0.00,229.0,meteohub,2013-06-29 15:47:00,
2013-06-29 11:52:00,78.3,68.5,29.62,South,175,1.0,4.0,69,0.00,,,0.00,218.0,meteohub,2013-06-29 15:52:00,
2013-06-29 11:57:00,77.9,68.2,29.62,South,175,4.0,4.0,69,0.00,,,0.00,197.0,meteohub,2013-06-29 15:57:00,
2013-06-29 12:02:00,77.7,68.7,29.62,South,176,2.0,4.0,71,0.00,,,0.00,185.0,meteohub,2013-06-29 16:02:00,
2013-06-29 12:08:00,77.2,68.5,29.62,South,176,0.0,4.0,72,0.00,,,0.00,243.0,meteohub,2013-06-29 16:08:00,
2013-06-29 12:14:00,77.2,69.1,29.62,SSE,156,2.0,4.0,73,0.00,,,0.00,582.0,meteohub,2013-06-29 16:14:00,
2013-06-29 12:21:00,77.4,69.3,29.62,SE,144,6.0,6.0,73,0.00,,,0.00,649.0,meteohub,2013-06-29 16:21:00,
2013-06-29 12:27:00,78.1,69.4,29.62,ESE,117,2.0,6.0,72,0.00,,,0.00,642.0,meteohub,2013-06-29 16:27:00,
2013-06-29 12:32:00,78.8,67.8,29.62,SW,236,0.0,6.0,66,0.00,,,0.00,1197.0,meteohub,2013-06-29 16:32:00,
2013-06-29 12:37:00,79.5,67.6,29.62,SSE,154,4.0,7.0,64,0.00,,,0.00,1053.0,meteohub,2013-06-29 16:37:00,
2013-06-29 12:42:00,79.9,68.0,29.62,SSW,192,2.0,12.0,64,0.00,,,0.00,1041.0,meteohub,2013-06-29 16:42:00,
2013-06-29 12:47:00,80.4,68.0,29.62,SSE,167,9.0,12.0,63,0.00,,,0.00,1051.0,meteohub,2013-06-29 16:47:00,
2013-06-29 12:52:00,80.8,68.4,29.62,SE,144,5.0,12.0,63,0.00,,,0.00,1030.0,meteohub,2013-06-29 16:52:00,
2013-06-29 12:57:00,81.1,66.9,29.62,ESE,115,4.0,11.0,59,0.00,,,0.00,1137.0,meteohub,2013-06-29 16:57:00,
2013-06-29 13:02:00,81.5,66.7,29.62,South,186,1.0,11.0,58,0.00,,,0.00,1148.0,meteohub,2013-06-29 17:02:00,
2013-06-29 13:07:00,81.7,66.9,29.62,SSE,147,5.0,9.0,58,0.00,,,0.00,1174.0,meteohub,2013-06-29 17:07:00,
2013-06-29 13:12:00,82.0,66.2,29.62,SSE,161,6.0,9.0,56,0.00,,,0.00,698.0,meteohub,2013-06-29 17:12:00,
2013-06-29 13:17:00,82.2,67.5,29.62,NW,322,3.0,10.0,58,0.00,,,0.00,517.0,meteohub,2013-06-29 17:17:00,
2013-06-29 13:22:00,82.4,67.1,29.62,SSW,211,5.0,10.0,57,0.00,,,0.00,446.0,meteohub,2013-06-29 17:22:00,
2013-06-29 13:27:00,81.9,65.1,29.62,SE,146,0.0,11.0,54,0.00,,,0.00,589.0,meteohub,2013-06-29 17:27:00,
2013-06-29 13:32:00,81.9,66.0,29.62,South,190,2.0,11.0,56,0.00,,,0.00,589.0,meteohub,2013-06-29 17:32:00,
2013-06-29 13:37:00,81.9,66.0,29.62,NNW,338,1.0,11.0,56,0.00,,,0.00,671.0,meteohub,2013-06-29 17:37:00,
2013-06-29 13:42:00,82.2,66.4,29.62,SSW,197,5.0,7.0,56,0.00,,,0.00,993.0,meteohub,2013-06-29 17:42:00,
2013-06-29 13:47:00,82.4,65.7,29.62,WNW,302,0.0,5.0,54,0.00,,,0.00,986.0,meteohub,2013-06-29 17:47:00,
2013-06-29 13:52:00,82.6,65.8,29.62,South,181,5.0,10.0,54,0.00,,,0.00,882.0,meteohub,2013-06-29 17:52:00,
2013-06-29 13:57:00,82.8,66.4,29.62,West,259,1.0,10.0,55,0.00,,,0.00,990.0,meteohub,2013-06-29 17:57:00,
2013-06-29 14:02:00,83.1,66.2,29.62,South,173,4.0,10.0,54,0.00,,,0.00,984.0,meteohub,2013-06-29 18:02:00,
2013-06-29 14:07:00,83.3,65.5,29.62,SE,142,3.0,10.0,52,0.00,,,0.00,983.0,meteohub,2013-06-29 18:07:00,
2013-06-29 14:12:00,83.5,66.0,29.62,NNW,331,2.0,7.0,53,0.00,,,0.00,972.0,meteohub,2013-06-29 18:12:00,
2013-06-29 14:17:00,83.7,67.3,29.62,SE,139,3.0,7.0,55,0.00,,,0.00,962.0,meteohub,2013-06-29 18:17:00,
2013-06-29 14:22:00,83.7,66.2,29.62,South,190,5.0,9.0,53,0.00,,,0.00,944.0,meteohub,2013-06-29 18:22:00,
2013-06-29 14:27:00,83.7,66.2,29.62,SSE,153,6.0,9.0,53,0.00,,,0.00,942.0,meteohub,2013-06-29 18:27:00,
2013-06-29 14:32:00,83.7,66.2,29.61,West,280,1.0,9.0,53,0.00,,,0.00,939.0,meteohub,2013-06-29 18:32:00,
2013-06-29 14:37:00,84.0,66.0,29.62,East,88,1.0,7.0,52,0.00,,,0.00,930.0,meteohub,2013-06-29 18:37:00,
2013-06-29 14:42:00,84.0,66.6,29.61,SE,142,6.0,12.0,53,0.00,,,0.00,928.0,meteohub,2013-06-29 18:42:00,
2013-06-29 14:47:00,84.2,66.2,29.61,SSE,152,1.0,12.0,52,0.00,,,0.00,918.0,meteohub,2013-06-29 18:47:00,
2013-06-29 14:52:00,84.2,67.3,29.61,SSW,210,3.0,12.0,54,0.00,,,0.00,907.0,meteohub,2013-06-29 18:52:00,
2013-06-29 14:59:00,84.2,66.7,29.61,South,178,1.0,10.0,53,0.00,,,0.00,889.0,meteohub,2013-06-29 18:59:00,
2013-06-29 15:05:00,84.4,66.4,29.61,WSW,257,4.0,13.0,52,0.00,,,0.00,881.0,meteohub,2013-06-29 19:05:00,
2013-06-29 15:11:00,84.6,66.6,29.61,SSE,162,3.0,10.0,52,0.00,,,0.00,868.0,meteohub,2013-06-29 19:11:00,
2013-06-29 15:17:00,84.6,67.1,29.60,SSW,210,5.0,10.0,53,0.00,,,0.00,868.0,meteohub,2013-06-29 19:17:00,
2013-06-29 15:22:00,84.9,65.8,29.60,SSE,167,6.0,10.0,50,0.00,,,0.00,861.0,meteohub,2013-06-29 19:22:00,
2013-06-29 15:29:00,85.5,68.0,29.60,SE,141,2.0,10.0,53,0.00,,,0.00,846.0,meteohub,2013-06-29 19:29:00,
2013-06-29 15:35:00,86.0,68.0,29.60,North,0,3.0,9.0,52,0.00,,,0.00,826.0,meteohub,2013-06-29 19:35:00,
2013-06-29 15:41:00,86.0,66.4,29.60,South,187,2.0,7.0,49,0.00,,,0.00,814.0,meteohub,2013-06-29 19:41:00,
2013-06-29 15:47:00,85.6,67.1,29.59,SSE,152,3.0,12.0,51,0.00,,,0.00,802.0,meteohub,2013-06-29 19:47:00,
2013-06-29 15:52:00,85.5,65.8,29.59,NE,50,2.0,12.0,49,0.00,,,0.00,789.0,meteohub,2013-06-29 19:52:00,
2013-06-29 15:59:00,85.5,65.3,29.59,SSW,195,1.0,10.0,48,0.00,,,0.00,766.0,meteohub,2013-06-29 19:59:00,
2013-06-29 16:05:00,85.8,68.7,29.59,SSW,212,2.0,8.0,54,0.00,,,0.00,749.0,meteohub,2013-06-29 20:05:00,
2013-06-29 16:12:00,85.8,66.7,29.59,South,190,3.0,7.0,50,0.00,,,0.00,726.0,meteohub,2013-06-29 20:12:00,
2013-06-29 16:17:00,85.6,67.6,29.60,West,275,1.0,9.0,52,0.00,,,0.00,708.0,meteohub,2013-06-29 20:17:00,
2013-06-29 16:22:00,85.8,67.8,29.59,SSE,148,3.0,9.0,52,0.00,,,0.00,694.0,meteohub,2013-06-29 20:22:00,
2013-06-29 16:27:00,86.0,66.4,29.59,South,169,5.0,7.0,49,0.00,,,0.00,693.0,meteohub,2013-06-29 20:27:00,
2013-06-29 16:32:00,86.0,65.7,29.59,South,173,6.0,10.0,48,0.00,,,0.00,666.0,meteohub,2013-06-29 20:32:00,
2013-06-29 16:37:00,85.8,68.4,29.59,SE,131,0.0,10.0,53,0.00,,,0.00,666.0,meteohub,2013-06-29 20:37:00,
2013-06-29 16:42:00,86.0,66.4,29.60,WSW,257,5.0,10.0,49,0.00,,,0.00,663.0,meteohub,2013-06-29 20:42:00,
2013-06-29 16:47:00,86.0,67.5,29.60,SSW,193,1.0,9.0,51,0.00,,,0.00,663.0,meteohub,2013-06-29 20:47:00,
2013-06-29 16:54:00,85.8,65.5,29.60,SE,142,2.0,9.0,48,0.00,,,0.00,615.0,meteohub,2013-06-29 20:54:00,
2013-06-29 17:00:00,85.5,68.0,29.60,SSW,203,0.0,9.0,53,0.00,,,0.00,578.0,meteohub,2013-06-29 21:00:00,
2013-06-29 17:06:00,85.8,66.7,29.60,SW,216,5.0,6.0,50,0.00,,,0.00,571.0,meteohub,2013-06-29 21:06:00,
2013-06-29 17:12:00,85.8,67.3,29.60,SSW,213,0.0,10.0,51,0.00,,,0.00,552.0,meteohub,2013-06-29 21:12:00,
2013-06-29 17:17:00,85.8,66.7,29.60,SSE,165,0.0,10.0,50,0.00,,,0.00,538.0,meteohub,2013-06-29 21:17:00,
2013-06-29 17:22:00,85.8,66.7,29.60,SSE,163,3.0,10.0,50,0.00,,,0.00,524.0,meteohub,2013-06-29 21:22:00,
2013-06-29 17:27:00,85.8,67.3,29.60,SSE,165,2.0,7.0,51,0.00,,,0.00,506.0,meteohub,2013-06-29 21:27:00,
2013-06-29 17:32:00,86.0,67.5,29.60,NE,48,2.0,7.0,51,0.00,,,0.00,490.0,meteohub,2013-06-29 21:32:00,
2013-06-29 17:37:00,86.2,70.7,29.60,West,270,0.0,7.0,57,0.00,,,0.00,475.0,meteohub,2013-06-29 21:37:00,
2013-06-29 17:42:00,86.4,66.6,29.60,SW,221,1.0,4.0,49,0.00,,,0.00,469.0,meteohub,2013-06-29 21:42:00,
2013-06-29 17:47:00,86.4,66.6,29.59,ESE,114,0.0,6.0,49,0.00,,,0.00,446.0,meteohub,2013-06-29 21:47:00,
2013-06-29 17:52:00,86.4,66.6,29.59,SW,220,0.0,6.0,49,0.00,,,0.00,422.0,meteohub,2013-06-29 21:52:00,
2013-06-29 17:57:00,86.2,67.1,29.59,SSE,167,2.0,7.0,50,0.00,,,0.00,404.0,meteohub,2013-06-29 21:57:00,
2013-06-29 18:02:00,86.2,67.1,29.59,SSW,213,0.0,7.0,50,0.00,,,0.00,390.0,meteohub,2013-06-29 22:02:00,
2013-06-29 18:07:00,86.2,67.6,29.59,SSE,153,2.0,7.0,51,0.00,,,0.00,378.0,meteohub,2013-06-29 22:07:00,
2013-06-29 18:12:00,86.0,66.4,29.59,SE,143,10.0,10.0,49,0.00,,,0.00,359.0,meteohub,2013-06-29 22:12:00,
2013-06-29 18:17:00,85.8,66.2,29.59,South,181,7.0,10.0,49,0.00,,,0.00,339.0,meteohub,2013-06-29 22:17:00,
2013-06-29 18:22:00,85.5,66.4,29.59,SSW,210,5.0,10.0,50,0.00,,,0.00,323.0,meteohub,2013-06-29 22:22:00,
2013-06-29 18:27:00,85.5,68.0,29.60,West,277,4.0,10.0,53,0.00,,,0.00,308.0,meteohub,2013-06-29 22:27:00,
2013-06-29 18:32:00,85.8,67.8,29.60,WSW,248,0.0,10.0,52,0.00,,,0.00,302.0,meteohub,2013-06-29 22:32:00,
2013-06-29 18:37:00,86.2,69.6,29.60,WSW,248,0.0,5.0,55,0.00,,,0.00,278.0,meteohub,2013-06-29 22:37:00,
2013-06-29 18:42:00,85.8,72.1,29.60,SSE,164,0.0,5.0,61,0.00,,,0.00,264.0,meteohub,2013-06-29 22:42:00,
2013-06-29 18:47:00,85.3,69.8,29.60,SSE,164,0.0,4.0,57,0.00,,,0.00,246.0,meteohub,2013-06-29 22:47:00,
2013-06-29 18:52:00,84.9,69.4,29.61,SSE,157,0.0,4.0,57,0.00,,,0.00,230.0,meteohub,2013-06-29 22:52:00,
2013-06-29 18:57:00,84.7,70.2,29.61,NE,55,2.0,3.0,59,0.00,,,0.00,211.0,meteohub,2013-06-29 22:57:00,
2013-06-29 19:02:00,84.4,70.0,29.61,NE,34,0.0,3.0,59,0.00,,,0.00,195.0,meteohub,2013-06-29 23:02:00,
2013-06-29 19:07:00,84.2,71.6,29.61,NNE,32,1.0,4.0,63,0.00,,,0.00,178.0,meteohub,2013-06-29 23:07:00,
2013-06-29 19:12:00,84.0,71.4,29.62,NNE,32,0.0,4.0,63,0.00,,,0.00,83.0,meteohub,2013-06-29 23:12:00,
2013-06-29 19:17:00,83.7,69.3,29.62,NNE,32,0.0,4.0,59,0.00,,,0.00,42.0,meteohub,2013-06-29 23:17:00,
2013-06-29 19:22:00,83.1,68.7,29.62,NNE,32,0.0,3.0,59,0.00,,,0.00,46.0,meteohub,2013-06-29 23:22:00,
2013-06-29 19:27:00,82.8,71.1,29.62,NNE,32,0.0,3.0,65,0.00,,,0.00,35.0,meteohub,2013-06-29 23:27:00,
2013-06-29 19:32:00,82.2,71.1,29.62,NNE,32,0.0,3.0,66,0.00,,,0.00,35.0,meteohub,2013-06-29 23:32:00,
2013-06-29 19:37:00,81.5,71.2,29.62,NNE,32,0.0,0.0,68,0.00,,,0.00,39.0,meteohub,2013-06-29 23:37:00,
2013-06-29 19:42:00,80.8,70.5,29.63,NNE,32,0.0,0.0,68,0.00,,,0.00,30.0,meteohub,2013-06-29 23:42:00,
2013-06-29 19:47:00,80.2,70.0,29.63,NE,40,0.0,0.0,68,0.00,,,0.00,30.0,meteohub,2013-06-29 23:47:00,
2013-06-29 19:52:00,79.7,70.7,29.63,NE,40,0.0,1.0,71,0.00,,,0.00,30.0,meteohub,2013-06-29 23:52:00,
2013-06-29 19:57:00,79.2,70.5,29.63,NE,40,0.0,1.0,72,0.00,,,0.00,30.0,meteohub,2013-06-29 23:57:00,
2013-06-29 20:02:00,78.6,70.0,29.64,NE,40,0.0,1.0,72,0.00,,,0.00,37.0,meteohub,2013-06-30 00:02:00,
2013-06-29 20:07:00,77.9,69.3,29.64,NE,40,0.0,1.0,72,0.00,,,0.00,28.0,meteohub,2013-06-30 00:07:00,
2013-06-29 20:12:00,77.4,70.0,29.64,NE,40,0.0,1.0,75,0.00,,,0.00,14.0,meteohub,2013-06-30 00:12:00,
2013-06-29 20:17:00,77.0,69.6,29.64,NE,40,0.0,1.0,75,0.00,,,0.00,9.0,meteohub,2013-06-30 00:17:00,
2013-06-29 20:22:00,76.5,69.4,29.64,NE,40,0.0,0.0,76,0.00,,,0.00,7.0,meteohub,2013-06-30 00:22:00,
2013-06-29 20:27:00,76.3,70.0,29.64,NE,40,0.0,0.0,78,0.00,,,0.00,5.0,meteohub,2013-06-30 00:27:00,
2013-06-29 20:32:00,75.7,69.4,29.65,NE,40,0.0,1.0,78,0.00,,,0.00,0.0,meteohub,2013-06-30 00:32:00,
2013-06-29 20:37:00,75.4,69.4,29.65,NE,40,0.0,1.0,79,0.00,,,0.00,0.0,meteohub,2013-06-30 00:37:00,
2013-06-29 20:42:00,75.2,68.9,29.65,NE,40,1.0,1.0,78,0.00,,,0.00,0.0,meteohub,2013-06-30 00:42:00,
2013-06-29 20:47:00,75.2,69.3,29.65,NE,40,0.0,2.0,79,0.00,,,0.00,0.0,meteohub,2013-06-30 00:47:00,
2013-06-29 20:52:00,75.0,69.1,29.65,NE,40,0.0,2.0,79,0.00,,,0.00,0.0,meteohub,2013-06-30 00:52:00,
2013-06-29 20:57:00,74.8,68.9,29.65,NE,40,0.0,2.0,79,0.00,,,0.00,0.0,meteohub,2013-06-30 00:57:00,
2013-06-29 21:02:00,74.7,68.7,29.65,NE,40,0.0,2.0,79,0.00,,,0.00,0.0,meteohub,2013-06-30 01:02:00,
2013-06-29 21:07:00,74.7,69.1,29.65,NE,40,0.0,1.0,80,0.00,,,0.00,0.0,meteohub,2013-06-30 01:07:00,
2013-06-29 21:12:00,74.7,69.1,29.65,NE,40,0.0,0.0,80,0.00,,,0.00,0.0,meteohub,2013-06-30 01:12:00,
2013-06-29 21:17:00,74.7,69.1,29.65,NE,40,0.0,0.0,80,0.00,,,0.00,0.0,meteohub,2013-06-30 01:17:00,
2013-06-29 21:24:00,74.7,69.4,29.65,NE,40,0.0,0.0,81,0.00,,,0.00,0.0,meteohub,2013-06-30 01:24:00,
2013-06-29 21:30:00,74.5,68.9,29.65,NE,40,0.0,0.0,80,0.00,,,0.00,0.0,meteohub,2013-06-30 01:30:00,
2013-06-29 21:36:00,74.5,69.3,29.66,NE,40,0.0,0.0,81,0.00,,,0.00,0.0,meteohub,2013-06-30 01:36:00,
2013-06-29 21:42:00,74.5,69.3,29.66,NE,40,0.0,0.0,81,0.00,,,0.00,0.0,meteohub,2013-06-30 01:42:00,
2013-06-29 21:47:00,74.5,69.3,29.66,NE,40,0.0,0.0,81,0.00,,,0.00,0.0,meteohub,2013-06-30 01:47:00,
2013-06-29 21:52:00,74.3,69.4,29.67,NE,40,0.0,0.0,82,0.00,,,0.00,0.0,meteohub,2013-06-30 01:52:00,
2013-06-29 21:57:00,74.3,69.4,29.67,NE,34,0.0,0.0,82,0.00,,,0.00,0.0,meteohub,2013-06-30 01:57:00,
2013-06-29 22:02:00,74.1,69.3,29.67,ENE,57,0.0,0.0,82,0.00,,,0.00,0.0,meteohub,2013-06-30 02:02:00,
2013-06-29 22:07:00,74.1,69.3,29.67,ENE,57,0.0,0.0,82,0.00,,,0.00,0.0,meteohub,2013-06-30 02:07:00,
2013-06-29 22:12:00,74.1,69.3,29.67,ENE,57,0.0,0.0,82,0.00,,,0.00,0.0,meteohub,2013-06-30 02:12:00,
2013-06-29 22:17:00,74.1,69.3,29.67,NE,55,0.0,1.0,82,0.00,,,0.00,0.0,meteohub,2013-06-30 02:17:00,
2013-06-29 22:22:00,73.9,69.4,29.67,NE,55,0.0,1.0,83,0.00,,,0.00,0.0,meteohub,2013-06-30 02:22:00,
2013-06-29 22:27:00,73.8,69.3,29.67,NE,55,0.0,1.0,83,0.00,,,0.00,0.0,meteohub,2013-06-30 02:27:00,
2013-06-29 22:32:00,73.6,69.1,29.68,NE,55,0.0,1.0,83,0.00,,,0.00,0.0,meteohub,2013-06-30 02:32:00,
2013-06-29 22:37:00,73.6,69.1,29.68,NE,55,0.0,0.0,83,0.00,,,0.00,0.0,meteohub,2013-06-30 02:37:00,
2013-06-29 22:42:00,73.4,68.9,29.68,NE,55,0.0,0.0,83,0.00,,,0.00,0.0,meteohub,2013-06-30 02:42:00,
2013-06-29 22:47:00,73.4,69.3,29.68,NE,55,0.0,0.0,84,0.00,,,0.00,0.0,meteohub,2013-06-30 02:47:00,
2013-06-29 22:52:00,73.2,69.1,29.68,NE,55,0.0,0.0,84,0.00,,,0.00,0.0,meteohub,2013-06-30 02:52:00,
2013-06-29 22:57:00,73.0,69.3,29.68,NE,55,0.0,0.0,85,0.00,,,0.00,0.0,meteohub,2013-06-30 02:57:00,
2013-06-29 23:02:00,72.9,69.1,29.68,NE,55,0.0,0.0,85,0.00,,,0.00,0.0,meteohub,2013-06-30 03:02:00,
2013-06-29 23:07:00,72.7,68.9,29.69,NE,55,0.0,0.0,85,0.00,,,0.00,0.0,meteohub,2013-06-30 03:07:00,
2013-06-29 23:12:00,72.7,68.9,29.69,NE,55,0.0,0.0,85,0.00,,,0.00,0.0,meteohub,2013-06-30 03:12:00,
2013-06-29 23:17:00,72.5,68.7,29.69,NE,55,0.0,0.0,85,0.00,,,0.00,0.0,meteohub,2013-06-30 03:17:00,
2013-06-29 23:22:00,72.5,69.1,29.69,NE,55,0.0,0.0,86,0.00,,,0.00,0.0,meteohub,2013-06-30 03:22:00,
2013-06-29 23:27:00,72.3,68.9,29.70,NE,55,0.0,0.0,86,0.00,,,0.00,0.0,meteohub,2013-06-30 03:27:00,
2013-06-29 23:32:00,72.3,68.9,29.70,NE,55,2.0,0.0,86,0.00,,,0.00,0.0,meteohub,2013-06-30 03:32:00,
2013-06-29 23:37:00,72.3,68.9,29.70,NW,304,1.0,3.0,86,0.00,,,0.00,0.0,meteohub,2013-06-30 03:37:00,
2013-06-29 23:42:00,72.5,67.6,29.70,NW,311,6.0,6.0,82,0.00,,,0.00,0.0,meteohub,2013-06-30 03:42:00,
2013-06-29 23:57:00,73.2,68.4,29.70,NNW,331,0.0,10.0,82,0.00,,,0.00,0.0,meteohub,2013-06-30 03:57:00,